Saint Martin Island, Netherlands Antilles

7:05 AM on December 10, 2016 (GMT +0000)
Saint Martin Island

Weather History for 78866 - October, 2013

Change the Weather History Date:

Thursday, October 24, 2013

  Actual Average Record
Temperature  
Mean Temperature 84 °F -  
Max Temperature 86 °F 84 °F - ()
Min Temperature 82 °F 74 °F - ()
Cooling Degree Days 19    
Growing Degree Days 34 (Base 50)    
Moisture  
Dew Point 74 °F    
Average Humidity 71    
Maximum Humidity 79    
Minimum Humidity 61    
Precipitation  
Precipitation 0.01 in 0.17 in - ()
Sea Level Pressure  
Sea Level Pressure 29.98 in    
Wind  
Wind Speed 10 mph ()    
Max Wind Speed 16 mph    
Max Gust Speed -    
Visibility 7.8 miles    
Events      
T = Trace of Precipitation, MM = Missing Value Source: Averaged Metar Reports

Daily Weather History Graph

Daily Weather History Graph

Search for Another Location

Airport or City:

Trip Planner

Search our weather history database for the weather conditions in past years. The results will help you decide how hot, cold, wet, or windy it might be!

Date:

Astronomy

Oct. 24, 2013 Rise Set
Actual Time 10:08 AM UTC 9:44 PM UTC
Civil Twilight 9:46 AM UTC 10:06 PM UTC
Nautical Twilight 9:20 AM UTC 10:31 PM UTC
Astronomical Twilight 8:55 AM UTC 10:57 PM UTC
Moon 1:32 AM UTC (10/24) 2:48 PM UTC (10/24)
Length of Visible Light 12h 19m
Length of Day
11h 35m
Waning Gibbous, 73% of the Moon is Illuminated
Oct 24
Waning Gibbous
Oct 26
Last Quarter
Nov 3
New
Nov 10
First Quarter
Nov 17
Full

Hourly Weather History & Observations

Time (GMT) Temp. Heat Index Dew Point Humidity Pressure Visibility Wind Dir Wind Speed Gust Speed Precip Events Conditions
12:00 AM 83 °F - 74 °F 68% 29.96 in 19 mi East 11.5 mph - -   Partly Cloudy
12:00 AM 82.4 °F 88.2 °F 73.4 °F 74% 29.95 in 6.2 mi East 11.5 mph - N/A   Partly Cloudy
1:00 AM 82.4 °F 88.2 °F 73.4 °F 74% 29.98 in 6.2 mi East 11.5 mph - N/A   Partly Cloudy
2:00 AM 82.4 °F 88.2 °F 73.4 °F 74% 29.98 in 6.2 mi East 8.1 mph - N/A   Partly Cloudy
3:00 AM 83 °F - 73 °F 66% 30.00 in 19 mi East 8.1 mph - -   Mostly Cloudy
3:00 AM 82.4 °F 88.2 °F 73.4 °F 74% 29.98 in 6.2 mi East 8.1 mph - N/A   Mostly Cloudy
4:00 AM 82.4 °F 88.2 °F 73.4 °F 74% 29.98 in 6.2 mi East 9.2 mph - N/A   Scattered Clouds
5:00 AM 82.4 °F 88.2 °F 73.4 °F 74% 29.98 in 6.2 mi ESE 8.1 mph - N/A   Scattered Clouds
6:00 AM 82 °F - 73 °F 67% 29.97 in 19 mi ESE 8.1 mph - -   Scattered Clouds
6:00 AM 82.4 °F 88.2 °F 73.4 °F 74% 29.95 in 6.2 mi ESE 8.1 mph - N/A   Scattered Clouds
7:00 AM 82.4 °F 88.2 °F 73.4 °F 74% 29.95 in 6.2 mi ESE 8.1 mph - N/A   Partly Cloudy
8:00 AM 82.4 °F 87.2 °F 71.6 °F 70% 29.95 in 6.2 mi ESE 8.1 mph - N/A   Partly Cloudy
9:00 AM 82 °F - 72 °F 66% 29.97 in 25 mi East 8.1 mph - -   Scattered Clouds
9:00 AM 82.4 °F 87.2 °F 71.6 °F 70% 29.95 in 6.2 mi East 8.1 mph - N/A   Partly Cloudy
10:00 AM 82.4 °F 88.2 °F 73.4 °F 74% 29.98 in 6.2 mi East 12.7 mph - N/A   Partly Cloudy
11:00 AM 82.4 °F 88.2 °F 73.4 °F 74% 29.98 in 6.2 mi East 9.2 mph - N/A   Partly Cloudy
12:00 PM 84 °F - 74 °F 65% 30.02 in 12 mi East 16.1 mph - -  
12:00 PM 84.2 °F 90.9 °F 73.4 °F 70% 30.01 in 6.2 mi East 12.7 mph - N/A   Scattered Clouds
1:00 PM 84.2 °F 90.9 °F 73.4 °F 70% 30.04 in 6.2 mi East 15.0 mph - N/A   Scattered Clouds
2:00 PM 86.0 °F 95.1 °F 75.2 °F 70% 30.04 in - East 10.4 mph - N/A   Scattered Clouds
3:00 PM 86.0 °F 93.4 °F 73.4 °F 66% 30.04 in 6.2 mi ESE 15.0 mph - N/A   Scattered Clouds
4:00 PM 86.0 °F 93.4 °F 73.4 °F 66% 30.01 in 6.2 mi ESE 15.0 mph - N/A   Scattered Clouds
5:00 PM 86.0 °F 95.1 °F 75.2 °F 70% 29.98 in 6.2 mi ESE 11.5 mph - N/A   Scattered Clouds
6:00 PM 86 °F - 74 °F 61% 29.96 in 22 mi East 11.5 mph - -   Partly Cloudy
6:00 PM 86.0 °F 95.1 °F 75.2 °F 70% 29.95 in 6.2 mi East 11.5 mph - N/A   Partly Cloudy
7:00 PM 86.0 °F 95.1 °F 75.2 °F 70% 29.95 in 6.2 mi ESE 13.8 mph - N/A   Partly Cloudy
8:00 PM 86.0 °F 95.1 °F 75.2 °F 70% 29.95 in 6.2 mi East 11.5 mph - N/A   Partly Cloudy
9:00 PM 84 °F - 74 °F 66% 29.97 in 22 mi ESE 12.7 mph - -   Scattered Clouds
9:00 PM 84.2 °F 92.3 °F 75.2 °F 74% 29.95 in 6.2 mi ESE 12.7 mph - N/A   Partly Cloudy
10:00 PM 82.4 °F 88.2 °F 73.4 °F 74% 29.98 in 6.2 mi East 12.7 mph - N/A   Partly Cloudy
11:00 PM 82.4 °F 89.5 °F 75.2 °F 79% 29.98 in 6.2 mi East 9.2 mph - N/A   Partly Cloudy